Location: ???????
(55.4362°N, 38.1183°E)
Time: 09:12:00
(UTC+00:00)

Cosmos 372 Rocket - Pass Details

Date: 28 October 2021
Orbit: 738 x 768 km, 74.1° (Epoch: 28 November)

Event Time Altitude Azimuth Distance (km) Brightness Sun altitude
Rises 18:35:07 0° 325° (NW) 3,188 8.1 -38.3°
Reaches altitude 10° 18:39:18 10° 358° (N) 2,266 6.8 -38.7°
Enters shadow 18:39:30 10° 0° (N) 2,244 6.8 -38.7°
